www.pogodaiklimat.ru

Погода и климат >> Архив погоды >> Россия >> город Санкт-Петербург >> Санкт-Петербург


АРХИВ ПОГОДЫ в Санкт-Петербурге

Время (UTC), дата Ветер
(напр.,м/с)
 
Видим.   Явления Облачность Т
(С)
Тd
(С)
f
(%)
Тe
(С)
Тes
(С)
Комфортность P
(гПа)
Po
(гПа)
Тmin
(С)
Tmax
(С)
R
(мм)
R24
(мм)
S
(см)
00 16.05 ЮВ 1 10 км ясно +16.9 +5.5 47 +18 +18 тепло 1015.3 1014.6
03 16.05 ЮЗ 2 10 км 6/4
[Sc Ac cast]
+15.4 +10.8 74 +15 +16 тепло 1015.3 1014.6 +15.3
06 16.05 ЮВ 2 10 км слабый ливневой дождь 9/8 300 м
[Cb calv Ac trans]
+16.6 +11.6 72 +17 +18 тепло 1016.4 1015.7 +15.3 0.0
09 16.05 СВ 1 10 км в посл. час ливневой дождь 9/8 600 м
[Sc diur, vesp Ac cuf]
+14.1 +12.3 89 +14 +16 тепло 1016.3 1015.6
12 16.05 штиль 0 10 км {ливн. осадки} 9/6 600 м
[Sc diur, vesp As trans]
+17.2 +12.8 75 +17 +20 тепло 1015.7 1014.9
15 16.05 В 1 4000 м слабый ливневой дождь 10/8 300 м
[Cb calv As trans]
+17.7 +12.9 73 +19 +19 тепло 1014.5 1013.8 2
18 16.05 штиль 0 10 км {ливн. осадки, дождь} 6/0
[Ac cuf Ci fib]
+16.6 +9.3 62 +17 +17 тепло 1014.4 1013.7 +19.0 2
21 16.05 С 1 10 км 8/5 600 м
[Sc Ac cuf]
+14.1 +10.7 80 +14 +14 тепло 1015.1 1014.3
00 17.05 штиль 0 10 км 8/0
[Ac trans]
+12.5 +10.7 89 +12 +12 тепло 1014.5 1013.7
03 17.05 В 1 10 км 6/0
[Ac trans]
+12.7 +11.5 92 +13 +13 тепло 1014.2 1013.5 +11.1 0.0
06 17.05 СВ 1 10 км 6/0
[Ac trans Ci fib]
+16.1 +10.6 70 +17 +22 тепло 1013.8 1013.1 +11.1
09 17.05 СЗ 1 10 км 4/1 300 м
[Cu hum Ci fib]
+19.6 +8.5 49 +22 +34 комфорт 1013.2 1012.5
12 17.05 З 1 10 км 4/4 800 м
[Cu hum]
+22.8 +7.7 38 +24 +32 комфорт 1011.8 1011.1
15 17.05 В 1 10 км 3/3 600 м
[Cu hum]
+22.5 +7.2 37 +23 +27 комфорт 1010.4 1009.7
18 17.05 штиль 0 10 км ясно +19.0 +8.7 51 +20 +20 тепло 1010.6 1009.9 +23.0
21 17.05 штиль 0 10 км ясно +15.5 +8.9 65 +15 +15 тепло 1010.6 1009.9
00 18.05 штиль 0 10 км ясно +12.3 +9.9 85 +12 +12 тепло 1009.4 1008.7
03 18.05 С 1 10 км 1/0
[Ac trans]
+12.7 +10.6 87 +13 +14 тепло 1009.4 1008.7 +11.2
06 18.05 ЮЗ 1 10 км 3/0
[Ac trans]
+18.5 +10.8 61 +20 +26 тепло 1008.7 1008.0 +11.2
09 18.05 ЮЗ 2 10 км 4/3 1000 м
[Cu hum As op]
+20.8 +10.1 50 +23 +31 комфорт 1008.7 1008.0
12 18.05 СВ 3 10 км 9/9 1500 м
[Sc diur, vesp]
+21.0 +9.1 46 +23 +24 комфорт 1008.0 1007.3
15 18.05 С 2 10 км в посл. час дождь 10/5 1000 м
[Cu hum As op]
+18.6 +9.9 57 +20 +20 тепло 1008.3 1007.6 0.0
18 18.05 С 2 10 км слабый ливневой дождь 10/6 600 м
[Cb cap As op]
+14.3 +5.7 56 +14 +14 тепло 1009.8 1009.1 +23.3 0.0
21 18.05 С 3 10 км {ливн. осадки, дождь} 10/10 1380 м
[Sc diur, vesp]
+11.9 +6.0 67 +10 +10 по сезону 1011.2 1010.4
00 19.05 С 3 10 км {ливн. осадки, дождь} 8/0
[Ac trans]
+10.3 +5.0 70 +8 +8 по сезону 1011.7 1010.9
03 19.05 С 3 10 км ясно +8.7 +4.4 74 +6 +7 прохладно 1012.8 1012.1 +8.6 0.9
06 19.05 С 3
{10}
10 км ясно +11.5 +2.4 54 +10 +15 по сезону 1014.1 1013.4 +8.6 0.9
09 19.05 СВ 2
{10}
10 км 6/3 600 м
[Cu hum Ac As Ci fib]
+13.2 -1.6 36 +13 +20 по сезону 1015.8 1015.1
12 19.05 С 3
{10}
10 км 6/3 600 м
[Cu hum Ac As Ci fib]
+16.2 -2.8 27 +16 +21 тепло 1016.3 1015.6
15 19.05 СВ 3
{10}
10 км ясно +17.1 -2.9 25 +17 +20 тепло 1017.0 1016.3
18 19.05 С 1 10 км ясно +14.8 -1.5 33 +16 +16 тепло 1018.1 1017.4 +17.2
21 19.05 штиль 0 10 км ясно +10.2 +2.6 59 +10 +10 по сезону 1019.5 1018.7
00 20.05 штиль 0 10 км ясно +7.8 +3.9 76 +7 +7 по сезону 1020.9 1020.1
03 20.05 штиль 0 10 км ясно +8.8 +7.5 92 +8 +9 по сезону 1022.2 1021.5 +7.5
06 20.05 ЮЗ 2 10 км ясно +15.0 +8.0 63 +15 +21 тепло 1023.8 1023.1 +7.5
09 20.05 З 3 10 км 4/3 600 м
[Cu hum Ci fib]
+17.9 +3.5 38 +18 +25 тепло 1024.5 1023.8
12 20.05 З 3 10 км 1/1 600 м
[Cu hum]
+19.5 +0.2 27 +20 +28 тепло 1024.7 1024.0
15 20.05 З 4 10 км 4/1 1000 м
[Cu hum Ci]
+18.0 +0.9 32 +18 +20 тепло 1024.9 1024.2
18 20.05 З 2 10 км 6/0
[Cs]
+15.1 +5.8 54 +15 +15 тепло 1025.4 1024.7 +20.2
21 20.05 З 1 10 км 4/0
[As op Cs]
+13.0 +6.9 66 +13 +13 тепло 1026.6 1025.8
00 21.05 З 1 10 км 3/0
[As op Cs]
+12.3 +8.8 79 +12 +12 тепло 1027.5 1026.8
03 21.05 З 1 10 км 1/0
[Ci fib]
+12.6 +7.8 73 +13 +14 тепло 1028.4 1027.6 +11.2
06 21.05 ЮЗ 2 10 км ясно +16.4 +7.0 54 +17 +23 тепло 1029.2 1028.5 +11.2
09 21.05 ЮЗ 3 10 км ясно +20.6 +3.1 31 +21 +32 комфорт 1029.8 1029.0
12 21.05 СЗ 2 10 км ясно +23.4 +1.8 24 +23 +34 комфорт 1028.9 1028.2
15 21.05 СЗ 2 10 км ясно +22.8 +1.8 25 +22 +26 комфорт 1028.0 1027.3
18 21.05 З 1 10 км ясно +18.3 +6.0 44 +20 +20 тепло 1027.4 1026.7 +23.5
21 21.05 штиль 0 10 км ясно +12.6 +7.2 70 +12 +12 по сезону 1027.5 1026.8
00 22.05 штиль 0 10 км ясно +11.2 +7.8 80 +11 +11 тепло 1027.4 1026.6
03 22.05 штиль 0 10 км ясно +11.2 +9.1 87 +11 +12 по сезону 1027.1 1026.3 +10.3
06 22.05 ЮВ 1 10 км ясно +21.9 +1.3 26 +22 +29 комфорт 1026.4 1025.7 +10.3
09 22.05 В 1 10 км 1/1 600 м
[Cu hum]
+25.2 +3.3 24 +24 +38 комфорт 1024.4 1023.7
12 22.05 Ю 2 10 км 8/4 700 м
[Cu hum Ac As Ci fib]
+25.8 +3.9 24 +25 +29 комфорт 1022.0 1021.3
15 22.05 Ю 3 10 км 8/5 600 м
[Sc diur, vesp Ac trans Ci fib]
+23.8 +4.4 28 +23 +25 комфорт 1020.3 1019.6
18 22.05 ЮЗ 2 10 км 9/8 600 м
[Sc diur, vesp Ac As]
+21.2 +4.2 33 +21 +21 комфорт 1019.6 1018.9 +26.1

 

Местоположение метеостанции Санкт-Петербург (город Санкт-Петербург, Россия): широта 59.97 долгота 30.30 высота над уровнем моря 6 м.

В архиве по умолчанию представлена погода в Санкт-Петербурге за последнюю неделю. Архивные данные за месяц целиком и за предыдущие месяцы, начиная с января 2011 года, Вы можете получить, выбрав интересующий диапазон дат из раскрывающегося списка и нажав кнопку "Ввод!".


*Определитесь, кто Вы:
робот инопланетянин человек

Внимание! Время в таблицах - всемирное. Для получения местного времени необходимо прибавить поправку, которая в Санкт-Петербурге равна 3 ч.

Смотрите также архив погоды в соседних городах и на ближайших метеорологических станциях:

Погода в Лисьем Носу (город Санкт-Петербург, Россия) (19 км)
Погода в Воейково (город Санкт-Петербург, Россия) (22 км)
Погода в Ломоносове (город Санкт-Петербург, Россия) (29 км)
Погода в Кронштадте (город Санкт-Петербург, Россия) (30 км)
Погода в Шлиссельбурге (Ленинградская область, Россия) (39 км)
Погода в Рощино (Ленинградская область, Россия) (48 км)
Погода в Шепелево (Ленинградская область, Россия) (58 км)
Погода в Сосново (Ленинградская область, Россия) (65 км)
Погода в Сосновом Бору (Ленинградская область, Россия) (65 км)
Погода в Белогорке (Ленинградская область, Россия) (70 км)

Пояснения к столбцам:

Ветер - указаны скорость ветра в м/с - средняя за 10 мин, порывы в срок и между сроками (в фигурных скобках) и направление, откуда дует ветер: С - северный, СВ - северо-восточный, В - восточный, ЮВ - юго-восточный, Ю - южный, ЮЗ - юго-западный, З - западный, СЗ - северо-западный.
Видимость - горизонтальная дальность видимости в метрах или километрах. При видимости от 1 до 10 км при отсутствии осадков обычно наблюдается дымка, при ухудшении видимости до 1 км и менее - туман. В сухую погоду видимость может ухудшаться дымом, пылью или мглою.
Явления - указаны атмосферные явления, наблюдавшиеся в срок или в последний час перед сроком; фигурными скобками обозначены явления, наблюдавшиеся между сроками (за 1-3 часа до срока); квадратными скобками обозначены град или гололедные отложения с указанием их диаметра в мм.
Облачность - указаны через наклонную черту общая и нижняя облачность в баллах и высота нижней границы облаков в метрах; квадратными скобками обозначены формы облаков: Ci - перистые, Cs - перисто-слоистые, Cc - перисто-кучевые, Ac - высококучевые, As - высокослоистые, Sc - слоисто-кучевые, Ns - слоисто-дождевые, Cu - кучевые, Cb - кучево-дождевые. Подробнее классификацию облаков см. в Атласе облаков (PDF).
T - Температура воздуха - температура, измеренная на высоте 2 м над землей.
Td - Температура точки росы - температура, при понижении до которой содержащийся в воздухе водяной пар достигнет насыщения.
f - Относительная влажность воздуха - влажноcть воздуха, измеренная на высоте 2 м над землей.
Te - Эффективная температура - температура, которую ощущает одетый по сезону человек в тени. Характеристика душности погоды. При расчете учитывается влияние влажности воздуха и скорости ветра на теплоощущения человека.
Tes - Эффективная температура на солнце - температура, которую ощущает человек, с поправкой на солнечный нагрев. Характеристика знойности погоды. Зависит от высоты солнца над горизонтом, облачности и скорости ветра. Ночью, в пасмурную погоду, а также при ветре 12 м/с и более поправка равна нулю.
P - Атмосферное давление - приведенное к уровню моря атмосферное давление.
Po - Атмосферное давление - измеренное на уровне метеостанции атмосферное давление.
Tmin - Минимальная температура - минимум температуры воздуха на высоте 2 м над землей.
Tmax - Максимальная температура - максимум температуры воздуха на высоте 2 м над землей.
R - Количество осадков - Количество выпавших осадков за период времени, мм. При наведении курсора мыши на число - период времени, за который выпало указанное количество осадков.
R24 - Количество осадков - Количество выпавших осадков за 24 часа, мм.
S - Снежный покров - Высота снежного покрова, см. При наведении курсора мыши на число - состояние снежного покрова и степень покрытия местности в баллах.